Temp
15 15 16 16 16 16 16 17 17 17 17 17 16 16 16 16 16 16 17 15 16 16 16 16 16 16 16 16 15 14 10 10 11 11 12 11 11 11 10 10 10 10 10 10 9
15 15 15 16 16 16 17 17 17 17 17 17 16 16 16 16 16 16 15 15 16 16 16 16 16 16 16 15 14 11 10 11 11 11 11 11 11 11 10 9 9 9 9 10 9
15 15 15 16 16 16 17 17 17 17 17 17 16 16 16 16 16 15 15 15 16 17 16 16 16 16 14 14 12 11 11 11 11 11 11 11 11 11 10 9 10 10 10 10 9
15 15 15 16 16 17 17 17 17 17 17 17 17 16 16 16 15 15 15 15 16 16 17 16 16 15 12 11 12 11 11 11 11 12 11 11 11 10 10 11 11 11 10 10 9
16 16 16 16 16 17 17 17 17 17 17 17 17 17 17 16 14 15 15 16 16 17 17 16 16 14 11 12 12 11 11 11 11 11 11 11 10 10 10 10 10 10 10 9 9
16 16 16 17 17 17 17 17 17 17 17 17 17 17 16 14 15 15 16 16 16 16 16 16 15 15 13 12 11 11 11 11 11 11 11 10 10 10 10 10 9 9 9 9 9
16 17 17 17 17 17 17 17 17 17 17 17 17 17 17 15 15 15 16 16 16 16 16 15 15 15 13 12 12 11 12 10 10 10 10 10 9 8 10 9 9 9 8 9 8
16 16 17 17 17 17 17 17 17 17 17 17 17 17 16 15 15 16 16 16 16 16 16 15 15 15 13 12 11 9 9 10 11 10 10 10 10 10 10 9 9 8 8 8 8
17 17 17 17 17 17 17 17 17 17 17 17 17 17 16 16 16 16 16 16 16 16 15 15 15 13 12 10 10 8 10 9 9 10 9 10 10 9 9 8 9 8 8 8 8
16 17 17 17 17 17 17 17 17 17 17 17 17 17 16 15 15 15 16 16 16 16 16 16 14 9 7 9 11 10 9 9 8 10 9 8 8 9 10 8 8 9 8 8 8
16 16 17 17 17 17 17 17 17 17 17 15 15 15 15 15 15 15 16 16 15 15 10 11 9 10 10 9 10 9 8 8 7 8 9 7 7 9 8 7 6 7 8 8 8
16 17 17 17 17 17 17 17 17 16 15 15 15 15 15 15 15 15 15 15 14 11 10 10 11 11 10 9 10 9 9 8 8 8 9 7 8 8 6 7 8 8 8 8 8
16 17 17 17 17 16 17 16 16 16 15 15 15 15 14 14 14 14 14 14 12 11 10 11 12 11 10 10 10 9 9 9 9 7 6 6 8 9 8 7 8 8 9 9 9
16 16 17 17 16 16 16 15 16 16 11 14 14 14 14 14 14 14 14 13 12 12 11 11 11 11 11 11 9 9 9 8 7 7 9 6 11 8 8 8 7 8 9 10 9
16 16 17 17 16 16 15 15 16 15 12 14 14 14 14 14 13 14 13 13 12 11 11 13 11 11 11 11 9 10 8 7 7 7 6 7 8 9 6 9 8 8 10 10 10
16 16 16 16 16 15 15 16 15 11 11 14 13 12 13 13 13 13 13 13 12 11 10 10 10 10 11 10 9 8 8 6 5 6 8 7 7 10 9 9 9 9 10 11 10
16 16 16 16 15 16 16 15 11 12 13 14 13 11 11 12 12 10 10 9 11 13 10 9 10 10 10 10 9 7 7 9 10 8 10 6 7 10 9 8 8 9 9 9 10
16 16 15 15 15 15 16 12 16 14 13 11 11 11 12 11 11 10 11 10 8 8 7 9 11 10 9 10 10 7 8 8 10 8 8 5 8 10 8 7 9 8 9 9 9
16 16 15 14 15 15 15 11 13 12 12 12 12 12 13 11 11 11 10 9 9 8 12 9 11 9 9 9 9 8 8 7 7 5 5 6 7 8 6 6 7 7 8 8 8
16 15 14 14 14 14 11 11 12 11 11 11 13 12 13 12 12 11 11 10 10 8 9 9 9 9 8 8 7 8 6 7 5 8 8 7 6 10 9 9 6 6 7 7 8
15 15 14 14 14 14 11 9 11 11 11 11 12 11 10 12 11 10 11 10 9 8 8 7 8 9 8 7 7 6 6 6 6 5 7 7 9 6 8 8 7 6 8 7 7
14 12 14 13 12 7 9 10 11 11 11 10 10 9 9 9 10 8 9 9 10 9 8 7 5 6 8 7 6 7 7 7 8 7 5 5 9 7 6 6 6 6 6 6 6
12 13 13 12 10 8 9 10 11 10 10 9 9 8 9 9 10 8 9 10 10 8 7 6 6 7 9 7 5 6 5 6 7 7 6 8 9 4 5 5 6 6 5 5 5
12 8 12 11 10 9 10 10 10 10 10 10 9 9 8 8 7 9 9 10 9 9 9 9 5 8 10 11 8 6 6 6 8 5 8 8 9 11 8 6 5 5 5 4 4
11 9 8 7 8 8 9 9 10 11 9 9 9 7 8 8 8 7 8 8 8 9 8 8 5 5 7 8 8 8 8 8 7 7 6 9 9 10 11 8 6 7 4 3 2
10 10 8 8 8 7 7 8 8 9 9 8 8 9 6 8 10 10 9 8 9 6 6 4 5 4 6 6 6 6 6 7 7 8 8 9 8 10 6 4 4 4 2 1 1
8 8 8 8 6 6 6 8 8 9 11 10 8 9 7 8 10 11 10 9 9 8 6 3 4 4 7 6 5 7 8 7 5 5 7 7 8 7 2 2 2 1 1 0 -0
Height
1537 1535 1533 1534 1534 1535 1535 1536 1536 1536 1537 1538 1539 1538 1538 1537 1536 1534 1532 1533 1530 1529 1528 1526 1525 1524 1524 1523 1525 1526 1537 1546 1544 1545 1542 1542 1543 1543 1543 1543 1544 1543 1543 1544 1544
1537 1534 1533 1534 1535 1535 1535 1536 1536 1537 1537 1538 1539 1539 1537 1536 1536 1535 1535 1532 1531 1528 1528 1527 1525 1524 1524 1526 1527 1528 1539 1541 1540 1540 1541 1541 1541 1542 1543 1542 1542 1542 1543 1543 1543
1537 1536 1535 1535 1536 1536 1536 1536 1537 1537 1538 1538 1539 1538 1537 1535 1537 1536 1534 1532 1531 1529 1527 1527 1526 1525 1527 1529 1532 1533 1540 1540 1541 1540 1541 1540 1541 1541 1541 1541 1538 1538 1538 1540 1541
1539 1538 1537 1537 1537 1537 1537 1537 1538 1538 1539 1539 1539 1538 1537 1536 1541 1537 1534 1533 1531 1529 1528 1527 1526 1527 1531 1534 1535 1539 1540 1540 1539 1539 1539 1540 1540 1539 1539 1537 1537 1537 1537 1538 1539
1541 1540 1539 1539 1539 1538 1538 1539 1539 1539 1540 1540 1539 1538 1538 1538 1540 1537 1535 1533 1532 1531 1528 1527 1527 1529 1534 1536 1537 1538 1540 1540 1539 1540 1540 1540 1539 1538 1535 1534 1534 1535 1535 1536 1536
1543 1542 1541 1541 1540 1540 1540 1540 1540 1541 1541 1540 1540 1539 1538 1540 1540 1537 1536 1535 1533 1532 1530 1529 1529 1530 1533 1537 1538 1540 1539 1539 1539 1539 1539 1539 1537 1537 1532 1531 1532 1532 1534 1535 1535
1546 1544 1543 1542 1541 1541 1541 1542 1542 1542 1541 1541 1540 1540 1540 1543 1540 1538 1537 1535 1534 1533 1532 1531 1531 1531 1534 1538 1540 1540 1540 1539 1539 1539 1539 1539 1537 1533 1530 1531 1532 1532 1532 1532 1533
1548 1546 1544 1544 1543 1542 1542 1542 1542 1542 1541 1541 1540 1540 1541 1541 1540 1539 1537 1536 1535 1534 1533 1532 1532 1532 1535 1538 1540 1543 1545 1547 1539 1539 1539 1539 1535 1529 1529 1529 1529 1530 1530 1529 1530
1549 1547 1546 1544 1544 1543 1543 1543 1543 1542 1541 1541 1541 1540 1542 1542 1540 1538 1537 1536 1535 1535 1534 1533 1533 1535 1538 1541 1546 1550 1551 1551 1544 1538 1538 1538 1533 1528 1527 1527 1527 1527 1527 1529 1529
1550 1547 1546 1545 1544 1544 1543 1543 1542 1541 1541 1541 1541 1543 1542 1543 1541 1539 1537 1536 1536 1535 1535 1534 1534 1540 1545 1546 1554 1553 1554 1552 1551 1539 1538 1537 1529 1524 1525 1524 1522 1523 1525 1527 1528
1551 1549 1547 1546 1545 1544 1543 1543 1545 1544 1541 1543 1543 1542 1542 1542 1541 1539 1537 1537 1536 1536 1540 1538 1545 1550 1549 1549 1550 1551 1554 1554 1546 1539 1538 1533 1528 1517 1517 1518 1518 1518 1520 1521 1523
1552 1550 1547 1545 1544 1543 1542 1542 1542 1544 1544 1543 1543 1543 1543 1542 1541 1540 1538 1538 1537 1542 1541 1544 1548 1546 1547 1548 1549 1551 1552 1551 1543 1539 1539 1532 1519 1513 1512 1512 1512 1513 1514 1516 1519
1552 1550 1548 1545 1544 1543 1541 1541 1541 1542 1543 1544 1544 1543 1544 1544 1542 1541 1540 1539 1540 1543 1544 1546 1546 1545 1546 1547 1549 1549 1549 1547 1548 1542 1539 1538 1520 1511 1510 1511 1510 1511 1513 1514 1515
1552 1550 1547 1545 1545 1542 1541 1541 1541 1541 1551 1547 1545 1545 1544 1542 1543 1542 1540 1542 1541 1544 1544 1545 1544 1545 1545 1546 1549 1550 1545 1546 1547 1546 1541 1539 1528 1513 1510 1509 1508 1508 1509 1511 1513
1553 1550 1547 1545 1544 1543 1543 1542 1542 1542 1576 1548 1545 1545 1543 1544 1544 1542 1540 1539 1541 1543 1545 1543 1544 1544 1545 1544 1546 1545 1544 1545 1545 1547 1549 1541 1540 1511 1515 1510 1506 1505 1505 1506 1508
1553 1551 1548 1547 1545 1544 1543 1543 1544 1557 1574 1548 1545 1544 1543 1542 1542 1541 1540 1541 1541 1542 1544 1544 1544 1543 1542 1543 1544 1542 1542 1545 1550 1550 1545 1541 1541 1511 1511 1505 1501 1501 1503 1505 1507
1554 1551 1549 1547 1547 1545 1544 1544 1558 1566 1550 1548 1547 1546 1547 1546 1543 1542 1544 1545 1546 1544 1551 1547 1543 1543 1543 1543 1544 1545 1546 1546 1543 1545 1534 1545 1541 1507 1500 1499 1500 1500 1500 1502 1504
1553 1550 1548 1548 1547 1546 1546 1546 1554 1550 1550 1548 1548 1547 1548 1548 1546 1545 1545 1547 1547 1548 1557 1555 1550 1543 1543 1543 1546 1550 1550 1555 1551 1550 1542 1547 1530 1501 1497 1496 1495 1496 1496 1497 1500
1553 1550 1548 1547 1546 1546 1547 1560 1554 1551 1548 1548 1548 1548 1547 1547 1548 1546 1546 1547 1544 1545 1546 1554 1546 1543 1543 1543 1544 1549 1551 1552 1553 1561 1560 1534 1520 1501 1495 1495 1495 1496 1497 1498 1499
1552 1548 1547 1547 1546 1546 1548 1554 1549 1546 1547 1548 1548 1547 1548 1547 1547 1547 1545 1542 1542 1543 1544 1547 1551 1542 1543 1544 1546 1546 1550 1553 1560 1549 1543 1525 1525 1502 1493 1491 1492 1493 1494 1495 1495
1552 1549 1548 1547 1546 1546 1553 1553 1547 1545 1547 1548 1548 1548 1549 1546 1547 1548 1543 1540 1539 1543 1543 1547 1550 1544 1544 1543 1542 1550 1551 1554 1555 1556 1543 1537 1503 1493 1489 1486 1487 1489 1490 1492 1492
1551 1551 1547 1547 1548 1550 1552 1549 1547 1544 1545 1546 1546 1546 1546 1545 1546 1548 1543 1537 1534 1536 1543 1543 1551 1551 1537 1535 1536 1538 1539 1541 1541 1540 1547 1543 1497 1485 1486 1487 1487 1488 1489 1490 1491
1552 1549 1547 1546 1551 1552 1548 1547 1545 1544 1543 1544 1543 1543 1543 1544 1545 1541 1538 1532 1532 1534 1538 1541 1547 1548 1533 1535 1538 1537 1536 1531 1530 1532 1527 1523 1496 1486 1487 1486 1484 1485 1487 1487 1487
1554 1552 1547 1546 1546 1547 1549 1547 1544 1541 1541 1541 1540 1540 1542 1542 1541 1538 1536 1531 1532 1533 1532 1533 1541 1534 1528 1517 1522 1531 1530 1527 1524 1531 1508 1504 1487 1476 1481 1485 1483 1483 1483 1484 1485
1556 1553 1551 1551 1547 1547 1546 1544 1545 1543 1540 1538 1537 1537 1537 1540 1538 1539 1535 1532 1531 1531 1534 1534 1540 1536 1523 1520 1519 1514 1515 1512 1517 1506 1512 1487 1486 1474 1464 1472 1472 1473 1477 1481 1482
1554 1551 1550 1548 1545 1547 1546 1543 1539 1536 1537 1536 1536 1530 1533 1535 1528 1529 1530 1533 1531 1532 1532 1536 1533 1532 1516 1516 1515 1508 1506 1500 1495 1489 1492 1482 1476 1463 1468 1467 1467 1469 1472 1476 1477
1549 1548 1547 1545 1544 1545 1541 1537 1534 1533 1530 1529 1530 1531 1531 1526 1522 1520 1520 1522 1521 1522 1525 1532 1532 1529 1508 1509 1513 1501 1482 1484 1488 1486 1481 1479 1465 1463 1465 1467 1468 1470 1471 1473 1475
Wind_Speed
11 7 3 1 1 2 2 2 2 4 5 6 5 2 5 5 8 13 8 14 14 11 6 4 5 3 5 7 7 3 4 2 5 5 2 3 2 2 2 3 3 3 4 4 0
11 10 6 5 4 3 3 4 3 4 5 5 2 4 8 5 3 16 14 12 10 9 5 3 6 4 5 5 6 5 3 5 3 3 2 4 3 5 3 2 3 4 6 4 2
12 11 11 9 6 5 4 5 5 5 5 4 1 5 10 3 2 12 12 11 11 9 6 4 4 6 7 7 8 3 3 3 2 1 3 4 3 4 4 4 9 7 9 7 4
12 11 10 9 8 7 7 6 6 7 6 4 2 5 5 6 2 12 11 11 12 12 6 8 3 4 5 4 5 5 2 1 2 2 2 2 3 3 9 5 4 8 8 7 5
13 11 10 9 8 9 9 8 8 8 6 5 5 4 3 5 8 11 10 10 9 11 9 10 11 5 4 3 3 4 1 1 1 1 2 2 4 5 9 9 7 8 10 9 6
14 11 9 8 7 8 8 8 8 6 7 13 13 13 5 6 11 11 8 8 8 12 15 12 7 10 8 4 4 1 1 1 1 2 3 3 3 2 3 10 11 11 11 9 6
14 11 9 6 5 6 6 6 6 5 5 1 5 3 14 10 12 10 7 8 8 10 12 12 10 3 5 3 2 1 2 3 2 1 2 2 4 6 7 8 11 13 13 11 8
14 12 9 6 5 5 5 5 4 3 2 1 2 3 5 11 13 6 6 7 7 7 7 7 8 10 5 3 4 4 4 4 1 1 1 1 6 3 7 10 12 14 15 14 11
14 11 9 5 3 4 3 2 4 2 3 4 2 2 3 5 14 11 6 5 3 5 8 5 3 6 4 3 4 6 2 3 8 1 1 2 6 5 7 11 15 17 18 17 13
15 13 7 6 2 1 2 4 6 9 2 2 3 3 4 6 9 12 3 5 3 1 1 4 5 4 4 5 1 3 4 4 5 3 1 5 15 11 19 18 19 19 18 18 16
17 14 9 5 6 3 3 3 3 1 9 7 5 3 4 5 3 12 5 1 3 6 4 6 6 2 1 1 1 2 3 5 5 4 5 4 9 16 13 14 18 20 20 19 18
18 15 13 9 5 6 4 4 1 5 5 5 4 4 4 6 2 12 6 2 5 3 3 5 2 2 1 2 2 3 3 5 5 3 2 7 18 13 8 5 9 13 17 18 17
18 17 15 14 5 7 3 3 6 2 2 1 2 3 3 4 3 10 9 3 4 3 3 4 2 0 1 0 4 2 3 3 5 6 2 7 7 4 1 3 6 8 8 13 14
18 17 16 14 5 7 3 5 3 1 4 2 1 3 3 2 1 7 7 3 3 1 2 2 1 1 1 1 3 4 3 2 5 4 3 4 5 5 3 5 4 9 10 11 12
18 17 15 13 8 6 3 4 1 2 4 1 2 3 3 1 3 3 5 2 3 2 2 2 2 1 1 1 3 7 1 3 1 1 3 2 1 6 4 5 7 12 13 12 12
19 16 14 12 10 7 5 2 2 6 4 2 2 4 2 3 3 6 2 2 2 3 2 2 1 2 1 1 3 5 2 2 2 1 1 1 2 5 3 5 3 4 9 11 13
19 16 12 11 8 5 4 3 5 4 2 2 2 4 2 3 4 5 4 5 2 4 5 5 1 1 1 2 1 6 4 4 5 3 4 1 1 9 5 5 4 6 5 4 8
21 16 11 9 8 4 3 5 1 1 4 0 1 2 2 3 1 5 2 2 1 3 2 2 5 3 1 1 1 3 2 3 5 3 4 3 6 5 4 4 8 6 5 5 6
21 16 7 6 6 3 1 4 5 4 1 0 1 1 2 1 1 3 1 3 5 5 2 2 4 1 1 2 2 2 2 2 1 1 2 4 6 9 4 7 6 9 7 6 5
25 15 4 5 7 3 4 4 3 2 3 1 3 2 3 2 2 2 1 3 3 4 2 4 4 2 1 2 4 2 5 2 1 4 6 5 4 7 4 5 7 9 13 11 7
19 7 4 7 9 1 2 6 4 4 4 2 3 3 5 2 3 3 4 3 5 4 2 4 2 3 1 6 8 2 1 2 1 4 4 4 6 7 7 6 8 13 15 11 7
9 5 8 8 2 2 1 2 3 2 4 4 3 6 6 5 4 5 6 6 11 11 6 5 4 4 10 1 2 3 7 6 3 5 4 2 12 2 5 5 6 11 13 9 5
13 5 5 3 0 2 3 3 4 3 4 4 4 6 2 4 3 6 4 2 13 9 7 6 2 4 7 1 3 5 5 6 1 3 10 7 9 0 2 4 8 14 14 10 8
8 3 3 1 3 4 1 4 4 3 4 4 3 3 3 4 5 3 3 2 7 8 6 11 4 7 10 13 3 4 6 7 10 4 10 14 25 24 10 8 12 16 15 11 8
3 3 2 4 3 2 4 3 3 4 5 6 3 7 8 5 3 5 3 4 3 5 4 2 5 6 14 17 16 20 19 17 14 23 11 26 23 26 24 9 19 25 17 12 9
5 4 3 5 6 2 4 5 8 5 6 5 6 1 8 7 7 4 2 2 5 1 7 2 4 2 12 13 15 20 16 19 23 26 21 28 28 30 16 6 8 14 17 13 7
8 10 5 4 2 3 5 6 4 0 8 7 8 2 4 12 21 21 17 19 15 8 9 8 4 3 10 3 6 11 13 12 5 5 7 8 16 9 4 5 9 12 9 6 5
Wind_Direction
356 352 306 214 146 112 134 144 144 157 162 163 171 9 6 5 24 26 31 10 8 8 6 7 17 118 71 64 53 77 68 141 193 168 172 162 139 196 159 150 190 207 189 174 217
22 31 65 112 108 112 120 129 125 143 156 159 151 349 334 312 346 20 17 10 9 9 21 55 47 92 67 36 27 62 91 186 179 186 154 173 185 186 180 186 216 206 196 206 268
39 55 78 93 97 96 104 122 121 126 134 149 113 14 8 20 75 3 12 17 17 25 29 47 57 70 62 37 18 36 102 170 166 162 155 163 187 189 180 246 229 217 213 220 256
50 63 76 83 85 89 100 105 105 107 109 102 36 350 15 37 63 2 16 23 22 19 35 48 68 70 68 50 17 85 69 69 163 177 174 206 174 228 213 235 228 223 219 215 242
52 62 69 78 81 89 95 99 102 101 90 51 20 9 45 52 20 16 19 33 40 39 70 75 69 83 88 72 57 72 148 82 189 236 275 248 239 253 243 237 230 214 205 216 223
47 57 66 75 81 90 97 102 103 87 97 87 69 58 42 72 21 21 31 36 53 50 63 67 79 93 93 68 70 58 111 343 255 272 276 274 279 298 248 219 212 206 216 218 229
42 49 56 68 87 100 100 103 96 90 118 3 12 345 45 44 24 23 38 43 52 55 61 59 60 109 108 98 63 44 24 349 350 297 266 321 264 235 236 201 215 220 221 223 235
34 37 44 61 81 107 109 101 78 49 44 321 352 26 85 40 25 31 33 33 39 42 48 49 66 76 64 106 36 47 51 7 267 355 256 100 283 260 215 210 226 231 232 233 237
26 29 31 46 77 86 114 66 14 281 65 44 23 112 79 19 14 24 35 38 47 70 45 45 74 71 53 62 26 13 332 333 318 342 308 166 269 272 225 219 243 241 239 241 243
24 25 28 32 28 279 218 169 15 30 241 264 28 108 36 358 12 12 11 26 27 301 11 48 53 65 33 42 336 314 334 308 253 283 246 247 261 255 251 252 252 250 243 244 248
17 21 21 11 15 294 207 268 305 94 64 80 61 75 12 358 30 11 18 12 29 53 35 19 61 44 264 177 137 210 227 250 258 275 309 246 266 277 265 248 252 249 239 241 245
14 12 11 358 339 350 268 245 320 142 83 69 59 47 24 9 5 17 23 52 50 58 345 23 70 222 192 163 239 238 269 279 278 274 254 304 288 276 254 235 238 241 232 233 238
12 10 5 360 4 2 37 142 137 123 105 51 35 27 13 360 30 6 18 46 76 62 31 135 162 106 171 214 4 283 220 278 263 320 255 308 289 326 91 251 243 242 234 226 232
7 9 7 8 18 4 57 123 113 50 71 302 354 6 348 1 36 9 15 39 44 132 160 194 151 93 126 281 111 309 195 275 289 358 297 18 288 302 300 275 244 232 222 217 221
4 6 9 14 11 24 69 130 45 59 12 292 327 334 340 67 323 343 8 54 131 158 115 275 178 134 226 203 158 244 342 253 218 202 359 347 3 271 0 276 249 237 226 218 217
2 3 6 12 21 39 102 110 0 41 267 357 313 338 348 17 357 327 14 44 92 118 6 264 284 182 208 216 191 305 351 71 59 99 338 189 132 272 219 226 256 213 219 225 218
1 360 3 11 19 46 88 8 35 126 3 317 324 23 354 316 348 32 21 14 63 13 4 338 242 248 213 12 45 17 18 335 348 3 241 234 242 253 248 226 225 199 182 200 214
357 353 356 8 18 24 352 48 91 262 236 2 315 307 270 2 326 337 24 359 193 88 94 45 323 174 165 104 191 50 120 145 291 292 285 314 233 248 216 221 215 198 182 188 199
352 348 346 1 12 7 7 51 218 200 177 249 325 350 301 304 258 1 229 219 211 181 171 143 277 121 74 153 129 155 179 146 208 241 334 241 283 286 221 249 240 225 206 182 182
352 342 6 0 358 7 73 232 233 200 150 120 204 188 257 270 330 2 257 197 200 185 160 190 295 183 148 113 36 170 156 84 34 299 288 265 272 245 271 249 220 216 203 192 179
348 339 343 341 336 3 176 230 265 232 201 180 225 245 223 240 206 233 239 249 187 166 105 143 137 280 209 199 180 132 227 77 142 182 225 284 263 213 225 225 202 212 198 189 180
346 328 314 325 340 41 198 243 308 249 212 244 222 212 206 189 227 235 229 231 184 160 171 199 156 243 233 154 139 178 198 166 171 226 239 240 271 316 236 265 241 208 187 186 200
339 295 315 337 124 313 292 267 248 209 222 196 241 211 176 222 242 199 221 256 184 169 168 185 203 319 321 50 23 212 206 217 266 44 234 259 266 72 300 249 221 194 197 201 213
340 341 317 17 150 153 330 285 287 239 248 206 231 158 160 236 223 269 257 275 208 213 189 162 193 198 251 261 141 198 210 216 211 217 262 239 270 277 248 231 219 214 211 214 221
325 281 256 302 315 228 171 185 253 276 228 219 234 217 182 221 219 225 232 293 207 224 192 168 246 241 251 269 278 274 267 252 222 243 242 267 271 273 280 245 230 225 205 209 214
259 230 236 257 264 265 224 232 205 242 186 240 220 207 190 211 207 196 234 171 255 94 158 163 254 273 278 242 242 267 266 256 246 252 256 254 263 270 303 224 194 198 190 194 201
260 255 260 245 202 161 215 231 256 140 250 248 225 212 223 235 237 244 243 238 232 208 199 160 218 203 268 135 323 274 250 232 239 223 219 240 253 298 216 197 174 175 180 191 227